Tracking 23757 objects as of 25-Oct-2021
HD Live streaming from Space Station
objects crossing your sky now

FREGAT DEB

Track FREGAT DEB now!
10-day predictions


NORAD ID: 45948
Int'l Code: 2011-037FD
Perigee: 1,074.6 km
Apogee: 4,407.2 km
Inclination: 51.4 °
Period: 144.3 minutes
Semi major axis: 9111 km
RCS: Unknown
Launch date: July 18, 2011
Source: Commonwealth of Independent States (former USSR) (CIS)
Launch site: TYURATAM MISSILE AND SPACE COMPLEX (TTMTR)

Note: This is SATELLITE DEBRIS
aabbcc
Your satellite tracking list
Your tracking list is empty




NASA's NSSDC Master Catalog

Two Line Element Set (TLE):
1 45948U 11037FD  21297.81743398  .00000446  00000-0  49403-2 0  9992
2 45948  51.4452 159.5013 1828703  17.0938 348.3918  9.98129433   895
Source of the keplerian elements: AFSPC